KellyUSA Airport, TX

6:37 PM CDT on August 19, 2017 (GMT -0500)
Kelly Air Force Base

Weather History for KSKF - January, 2013

Change the Weather History Date:

Wednesday, January 23, 2013

  Actual Average Record
Temperature  
Mean Temperature 60 °F -  
Max Temperature 75 °F 63 °F 84 °F (2002)
Min Temperature 44 °F 42 °F 28 °F (2014)
Degree Days  
Heating Degree Days 6    
Growing Degree Days 10 (Base 50)    
Moisture  
Dew Point 52 °F    
Average Humidity 81    
Maximum Humidity 100    
Minimum Humidity 50    
Precipitation  
Precipitation 0.00 in - - ()
Sea Level Pressure  
Sea Level Pressure 30.29 in    
Wind  
Wind Speed 1 mph (South)    
Max Wind Speed 10 mph    
Max Gust Speed 18 mph    
Visibility 9 miles    
Events      
Averages and records for this station are not official NWS values.
T = Trace of Precipitation, MM = Missing Value Source: NWS Daily Summary

Daily Weather History Graph

Daily Weather History Graph

Search for Another Location

Airport or City:

Trip Planner

Search our weather history database for the weather conditions in past years. The results will help you decide how hot, cold, wet, or windy it might be!

Date:

Astronomy

Jan. 23, 2013 Rise Set
Actual Time 7:27 AM CST 6:05 PM CST
Civil Twilight 7:02 AM CST 6:30 PM CST
Nautical Twilight 6:33 AM CST 6:59 PM CST
Astronomical Twilight 6:05 AM CST 7:27 PM CST
Moon 3:20 PM CST (1/23) 4:36 AM CST (1/23)
Length of Visible Light 11h 28m
Length of Day
10h 37m
Waxing Gibbous, 89% of the Moon is Illuminated
Jan 23
Waxing Gibbous
Jan 26
Full
Feb 3
Last Quarter
Feb 10
New
Feb 17
First Quarter

Hourly Weather History & Observations

Time (CST) Temp. Dew Point Humidity Pressure Visibility Wind Dir Wind Speed Gust Speed Precip Events Conditions
12:55 AM 50.0 °F 47.3 °F 90% 30.25 in 10.0 mi Calm Calm - N/A   Clear
1:55 AM 49.5 °F 46.9 °F 91% 30.25 in 10.0 mi Calm Calm - N/A   Clear
2:55 AM 47.7 °F 45.5 °F 92% 30.25 in 10.0 mi Calm Calm - N/A   Clear
3:55 AM 46.6 °F 44.8 °F 93% 30.25 in 10.0 mi Calm Calm - N/A   Partly Cloudy
4:55 AM 45.9 °F 44.1 °F 93% 30.25 in 10.0 mi Calm Calm - N/A   Partly Cloudy
5:04 AM 44.6 °F 42.8 °F 93% 30.25 in 10.0 mi Calm Calm - N/A   Mostly Cloudy
5:55 AM 47.1 °F 45.5 °F 94% 30.25 in 10.0 mi North 3.5 mph - N/A   Overcast
6:05 AM 46.4 °F 46.4 °F 100% 30.25 in 10.0 mi Calm Calm - N/A   Mostly Cloudy
6:10 AM 46.4 °F 44.6 °F 93% 30.25 in 10.0 mi Calm Calm - N/A   Scattered Clouds
6:54 AM 46.4 °F 44.6 °F 93% 30.27 in 10.0 mi Calm Calm - N/A   Partly Cloudy
6:55 AM 45.7 °F 43.9 °F 93% 30.27 in 10.0 mi Calm Calm - N/A   Partly Cloudy
7:55 AM 46.0 °F 44.8 °F 95% 30.29 in 10.0 mi Calm Calm - N/A   Clear
8:11 AM 46.4 °F 46.4 °F 100% 30.30 in 10.0 mi Calm Calm - N/A   Partly Cloudy
8:38 AM 50.0 °F 48.2 °F 94% 30.29 in 5.0 mi Calm Calm - N/A   Scattered Clouds
8:55 AM 52.5 °F 49.6 °F 90% 30.30 in 3.0 mi Calm Calm - N/A   Mostly Cloudy
9:04 AM 53.6 °F 50.0 °F 88% 30.31 in 3.0 mi Calm Calm - N/A   Overcast
9:13 AM 53.6 °F 50.0 °F 88% 30.31 in 2.5 mi Calm Calm - N/A   Mostly Cloudy
9:26 AM 55.4 °F 51.8 °F 88% 30.32 in 2.5 mi Calm Calm - N/A   Mostly Cloudy
9:46 AM 55.4 °F 53.6 °F 94% 30.32 in 3.0 mi Calm Calm - N/A   Mostly Cloudy
9:55 AM 57.0 °F 53.1 °F 87% 30.33 in 6.0 mi Calm Calm - N/A   Mostly Cloudy
9:58 AM 57.2 °F 53.6 °F 88% 30.33 in 6.0 mi Calm Calm - N/A   Mostly Cloudy
10:03 AM 57.2 °F 53.6 °F 88% 30.33 in 10.0 mi Calm Calm - N/A   Mostly Cloudy
10:04 AM 57.2 °F 53.6 °F 88% 30.33 in 10.0 mi Calm Calm - N/A   Mostly Cloudy
10:06 AM 59.0 °F 53.6 °F 82% 30.33 in 10.0 mi Calm Calm - N/A   Mostly Cloudy
10:10 AM 59.0 °F 53.6 °F 82% 30.33 in 10.0 mi Calm Calm - N/A   Mostly Cloudy
10:12 AM 59.0 °F 53.6 °F 82% 30.33 in 10.0 mi Calm Calm - N/A   Mostly Cloudy
10:15 AM 59.0 °F 53.6 °F 82% 30.34 in 10.0 mi Calm Calm - N/A   Mostly Cloudy
10:17 AM 59.0 °F 53.6 °F 82% 30.34 in 10.0 mi Calm Calm - N/A   Mostly Cloudy
10:18 AM 59.0 °F 53.6 °F 82% 30.34 in 10.0 mi Calm Calm - N/A   Mostly Cloudy
10:24 AM 60.8 °F 53.6 °F 77% 30.34 in 10.0 mi Calm Calm - N/A   Mostly Cloudy
10:29 AM 60.8 °F 53.6 °F 77% 30.34 in 10.0 mi Calm Calm - N/A   Mostly Cloudy
10:37 AM 60.8 °F 55.4 °F 82% 30.34 in 10.0 mi Calm Calm - N/A   Mostly Cloudy
10:40 AM 62.6 °F 55.4 °F 77% 30.34 in 10.0 mi South 3.5 mph - N/A   Mostly Cloudy
10:42 AM 62.6 °F 55.4 °F 77% 30.34 in 10.0 mi Calm Calm - N/A   Mostly Cloudy
10:50 AM 62.6 °F 55.4 °F 77% 30.34 in 10.0 mi South 4.6 mph - N/A   Overcast
10:55 AM 63.5 °F 55.8 °F 76% 30.34 in 10.0 mi SSE 5.8 mph - N/A   Overcast
11:33 AM 64.4 °F 57.2 °F 77% 30.33 in 10.0 mi South 8.1 mph - N/A   Overcast
11:36 AM 64.4 °F 57.2 °F 77% 30.33 in 10.0 mi South 6.9 mph - N/A   Overcast
11:45 AM 64.4 °F 57.2 °F 77% 30.32 in 10.0 mi South 5.8 mph - N/A   Overcast
11:55 AM 65.7 °F 57.9 °F 76% 30.32 in 10.0 mi SW 6.9 mph - N/A   Overcast
12:01 PM 66.2 °F 57.2 °F 73% 30.31 in 10.0 mi SSW 3.5 mph - N/A   Overcast
12:18 PM 68.0 °F 57.2 °F 68% 30.30 in 10.0 mi SW 6.9 mph - N/A   Scattered Clouds
12:55 PM 70.2 °F 56.1 °F 61% 30.27 in 10.0 mi South 9.2 mph 18.4 mph N/A   Clear
1:55 PM 73.9 °F 55.2 °F 52% 30.23 in 10.0 mi South 10.4 mph - N/A   Clear
2:55 PM 75.0 °F 56.5 °F 52% 30.22 in 8.0 mi South 10.4 mph - N/A   Scattered Clouds
3:55 PM 75.6 °F 55.8 °F 50% 30.20 in 10.0 mi SW 6.9 mph - N/A   Partly Cloudy
4:55 PM 75.4 °F 55.4 °F 50% 30.19 in 10.0 mi SSW 4.6 mph - N/A   Clear
5:55 PM 70.3 °F 54.9 °F 58% 30.20 in 10.0 mi South 5.8 mph - N/A   Clear
6:55 PM 63.7 °F 52.7 °F 67% 30.20 in 10.0 mi South 3.5 mph - N/A   Clear
7:55 PM 61.7 °F 53.1 °F 73% 30.20 in 10.0 mi Calm Calm - N/A   Clear
8:55 PM 59.5 °F 52.0 °F 76% 30.21 in 10.0 mi Calm Calm - N/A   Clear
9:55 PM 61.7 °F 56.1 °F 82% 30.23 in 10.0 mi South 9.2 mph - N/A   Clear
10:55 PM 58.1 °F 55.4 °F 91% 30.23 in 10.0 mi South 5.8 mph - N/A   Clear
11:55 PM 59.5 °F 57.2 °F 92% 30.23 in 10.0 mi South 5.8 mph - N/A   Clear